Tracking 19475 objects as of 18-Jan-2019
HD Live streaming from Space Station
objects crossing your sky now

YAOGAN-30 M

Track YAOGAN-30 M now!
10-day predictions


NORAD ID: 43172
Int'l Code: 2018-011D
Perigee: 603.9 km
Apogee: 608.7 km
Inclination: 35.0 °
Period: 96.7 minutes
Semi major axis: 6977 km
RCS: Unknown
Launch date: January 25, 2018
Source: People's Republic of China (PRC)
Launch site: Xichang Space Center, China (XSC)
aabbcc
Your satellite tracking list
Your tracking list is empty




NASA's NSSDC Master Catalog

Two Line Element Set (TLE):
1 43172U 18011D   19017.87372694  .00000066  00000-0  95576-5 0  9991
2 43172  34.9995 209.2783 0003425  81.9329 278.1762 14.89595232 53330
Source of the keplerian elements: AFSPC